Mount Airy, NC

6:15 AM EDT on July 27, 2017 (GMT -0400)
Mount Airy-Surry County

Weather History for KMWK - November, 2013

Change the Weather History Date:

Wednesday, November 13, 2013

  Actual Average (KINT) Record (KINT)
Temperature  
Mean Temperature 37 °F -  
Max Temperature 46 °F 57 °F 80 °F (1989)
Min Temperature 28 °F 39 °F 17 °F (1976)
Degree Days  
Heating Degree Days 28    
Moisture  
Dew Point 14 °F    
Average Humidity 43    
Maximum Humidity 65    
Minimum Humidity 20    
Precipitation  
Precipitation 0.00 in - - ()
Sea Level Pressure  
Sea Level Pressure 30.45 in    
Wind  
Wind Speed 5 mph (NNW)    
Max Wind Speed 12 mph    
Max Gust Speed 20 mph    
Visibility 10 miles    
Events      
Averages and records for this station are not official NWS values.
T = Trace of Precipitation, MM = Missing Value Source: NWS Daily Summary

Daily Weather History Graph

Daily Weather History Graph

Search for Another Location

Airport or City:

Trip Planner

Search our weather history database for the weather conditions in past years. The results will help you decide how hot, cold, wet, or windy it might be!

Date:

Astronomy

Nov. 13, 2013 Rise Set
Actual Time 6:57 AM EST 5:14 PM EST
Civil Twilight 6:30 AM EST 5:42 PM EST
Nautical Twilight 5:59 AM EST 6:13 PM EST
Astronomical Twilight 5:28 AM EST 6:43 PM EST
Moon 2:55 PM EST (11/13) 2:55 AM EST (11/13)
Length of Visible Light 11h 11m
Length of Day
10h 17m
Waxing Gibbous, 84% of the Moon is Illuminated
Nov 13
Waxing Gibbous
Nov 17
Full
Nov 25
Last Quarter
Dec 2
New
Dec 9
First Quarter

Hourly Weather History & Observations

Time (EST) Temp. Windchill Dew Point Humidity Pressure Visibility Wind Dir Wind Speed Gust Speed Precip Events Conditions
12:15 AM 31.1 °F 23.1 °F 17.2 °F 57% 30.43 in 10.0 mi NNW 9.2 mph - N/A   Clear
12:35 AM 31.5 °F 26.8 °F 17.2 °F 56% 30.42 in 10.0 mi North 4.6 mph 17.3 mph N/A   Clear
12:55 AM 31.1 °F 27.7 °F 17.2 °F 57% 30.42 in 10.0 mi NNW 3.5 mph - N/A   Clear
1:15 AM 30.9 °F - 16.7 °F 56% 30.42 in 10.0 mi Calm Calm - N/A   Clear
1:35 AM 30.4 °F 25.6 °F 16.9 °F 57% 30.43 in 10.0 mi NNW 4.6 mph - N/A   Clear
1:55 AM 30.7 °F 26.0 °F 17.1 °F 57% 30.43 in 10.0 mi North 4.6 mph - N/A   Clear
2:15 AM 30.7 °F 24.1 °F 17.2 °F 57% 30.42 in 10.0 mi NW 6.9 mph - N/A   Clear
2:35 AM 31.3 °F 27.9 °F 16.3 °F 54% 30.43 in 10.0 mi NNW 3.5 mph - N/A   Clear
2:55 AM 30.9 °F 25.2 °F 16.3 °F 55% 30.42 in 10.0 mi North 5.8 mph - N/A   Clear
3:15 AM 31.1 °F 23.1 °F 15.4 °F 52% 30.41 in 10.0 mi North 9.2 mph 16.1 mph N/A   Clear
3:35 AM 31.1 °F 26.4 °F 15.6 °F 53% 30.41 in 10.0 mi NNW 4.6 mph - N/A   Clear
3:55 AM 31.1 °F 25.4 °F 15.8 °F 53% 30.42 in 10.0 mi NW 5.8 mph - N/A   Clear
4:15 AM 30.4 °F - 15.1 °F 53% 30.42 in 10.0 mi Calm Calm - N/A   Clear
4:35 AM 30.2 °F 25.4 °F 14.9 °F 53% 30.43 in 10.0 mi NNW 4.6 mph - N/A   Clear
4:55 AM 29.8 °F 26.3 °F 14.5 °F 53% 30.43 in 10.0 mi NNW 3.5 mph - N/A   Clear
5:15 AM 30.2 °F 25.4 °F 13.5 °F 50% 30.44 in 10.0 mi NNW 4.6 mph - N/A   Clear
5:35 AM 29.8 °F 24.9 °F 13.3 °F 50% 30.44 in 10.0 mi NNW 4.6 mph - N/A   Clear
5:55 AM 29.7 °F 24.7 °F 13.3 °F 51% 30.44 in 10.0 mi NNW 4.6 mph - N/A   Clear
6:15 AM 29.7 °F 23.7 °F 12.6 °F 49% 30.45 in 10.0 mi North 5.8 mph - N/A   Clear
6:35 AM 30.0 °F 20.5 °F 12.2 °F 48% 30.45 in 10.0 mi North 11.5 mph 19.6 mph N/A   Clear
6:55 AM 29.8 °F 21.5 °F 12.9 °F 49% 30.46 in 10.0 mi North 9.2 mph 19.6 mph N/A   Clear
7:15 AM 29.8 °F 22.2 °F 13.1 °F 50% 30.47 in 10.0 mi North 8.1 mph - N/A   Clear
7:35 AM 30.2 °F 22.6 °F 13.6 °F 50% 30.48 in 10.0 mi North 8.1 mph 17.3 mph N/A   Clear
7:55 AM 30.9 °F 26.2 °F 14.0 °F 50% 30.49 in 10.0 mi North 4.6 mph 18.4 mph N/A   Clear
8:15 AM 31.6 °F 27.0 °F 14.2 °F 49% 30.49 in 10.0 mi NNW 4.6 mph - N/A   Clear
8:35 AM 32.2 °F 26.7 °F 14.4 °F 48% 30.50 in 10.0 mi NNW 5.8 mph - N/A   Clear
8:55 AM 33.1 °F 24.9 °F 14.7 °F 47% 30.50 in 10.0 mi NW 10.4 mph - N/A   Clear
9:15 AM 34.0 °F 29.8 °F 14.2 °F 44% 30.50 in 10.0 mi NNW 4.6 mph - N/A   Clear
9:35 AM 35.4 °F 31.5 °F 13.8 °F 41% 30.50 in 10.0 mi NNW 4.6 mph - N/A   Clear
9:55 AM 36.1 °F 30.6 °F 14.0 °F 40% 30.50 in 10.0 mi North 6.9 mph - N/A   Clear
10:15 AM 37.0 °F 31.0 °F 13.3 °F 38% 30.50 in 10.0 mi North 8.1 mph 16.1 mph N/A   Clear
10:35 AM 37.0 °F 31.6 °F 11.8 °F 35% 30.50 in 10.0 mi North 6.9 mph - N/A   Clear
10:55 AM 38.5 °F 33.4 °F 12.2 °F 34% 30.50 in 10.0 mi NNW 6.9 mph - N/A   Clear
11:15 AM 40.1 °F 35.3 °F 11.8 °F 32% 30.49 in 10.0 mi North 6.9 mph 18.4 mph N/A   Clear
11:35 AM 40.3 °F 35.5 °F 11.3 °F 31% 30.49 in 10.0 mi WNW 6.9 mph - N/A   Clear
11:55 AM 40.8 °F 35.6 °F 11.3 °F 30% 30.48 in 10.0 mi NW 8.1 mph - N/A   Clear
12:15 PM 42.4 °F 38.8 °F 11.5 °F 28% 30.47 in 10.0 mi NW 5.8 mph - N/A   Clear
12:35 PM 43.2 °F 40.5 °F 10.9 °F 27% 30.46 in 10.0 mi North 4.6 mph - N/A   Clear
12:55 PM 43.3 °F 40.7 °F 10.9 °F 27% 30.45 in 10.0 mi West 4.6 mph - N/A   Clear
1:15 PM 43.9 °F 39.3 °F 9.7 °F 25% 30.44 in 10.0 mi North 8.1 mph - N/A   Clear
1:35 PM 45.0 °F 41.2 °F 9.5 °F 24% 30.44 in 10.0 mi North 6.9 mph - N/A   Clear
1:55 PM 45.0 °F 40.6 °F 8.8 °F 23% 30.44 in 10.0 mi NNW 8.1 mph 18.4 mph N/A   Clear
2:15 PM 45.3 °F 43.0 °F 9.3 °F 23% 30.44 in 10.0 mi North 4.6 mph - N/A   Clear
2:35 PM 45.9 °F 43.6 °F 8.4 °F 22% 30.43 in 10.0 mi NNW 4.6 mph - N/A   Clear
2:55 PM 46.2 °F 44.1 °F 7.3 °F 20% 30.42 in 10.0 mi WNW 4.6 mph - N/A   Clear
3:15 PM 46.0 °F 43.1 °F 8.1 °F 21% 30.42 in 10.0 mi North 5.8 mph - N/A   Clear
3:35 PM 46.0 °F 42.5 °F 7.9 °F 21% 30.42 in 10.0 mi North 6.9 mph - N/A   Clear
3:55 PM 45.7 °F 42.0 °F 8.2 °F 22% 30.43 in 10.0 mi NNW 6.9 mph - N/A   Clear
4:15 PM 45.7 °F 41.5 °F 8.6 °F 22% 30.43 in 10.0 mi NW 8.1 mph - N/A   Clear
4:35 PM 45.0 °F 41.8 °F 8.2 °F 22% 30.43 in 10.0 mi WNW 5.8 mph - N/A   Clear
4:55 PM 44.1 °F 40.1 °F 8.4 °F 23% 30.44 in 10.0 mi NW 6.9 mph - N/A   Clear
5:15 PM 42.8 °F 40.1 °F 9.5 °F 26% 30.44 in 10.0 mi NW 4.6 mph - N/A   Clear
5:35 PM 41.7 °F 38.8 °F 10.2 °F 28% 30.45 in 10.0 mi NW 4.6 mph - N/A   Clear
5:55 PM 41.0 °F 39.0 °F 10.8 °F 29% 30.45 in 10.0 mi NNW 3.5 mph - N/A   Clear
6:35 PM 39.4 °F - 11.5 °F 32% 30.45 in 10.0 mi Calm Calm - N/A   Clear
6:55 PM 38.1 °F - 11.8 °F 34% 30.46 in 10.0 mi Calm Calm - N/A   Clear
7:15 PM 37.2 °F - 13.6 °F 38% 30.46 in 10.0 mi Calm Calm - N/A   Clear
7:35 PM 33.1 °F - 16.7 °F 51% 30.46 in 10.0 mi Calm Calm - N/A   Clear
7:55 PM 34.7 °F - 15.3 °F 45% 30.46 in 10.0 mi Calm Calm - N/A   Clear
8:15 PM 32.2 °F - 16.3 °F 52% 30.46 in 10.0 mi Calm Calm - N/A   Clear
8:35 PM 32.0 °F - 16.7 °F 53% 30.46 in 10.0 mi Calm Calm - N/A   Clear
8:55 PM 32.7 °F - 16.5 °F 51% 30.46 in 10.0 mi Calm Calm - N/A   Clear
9:15 PM 30.0 °F - 18.1 °F 61% 30.46 in 10.0 mi Calm Calm - N/A   Clear
9:35 PM 29.8 °F - 19.2 °F 65% 30.45 in 10.0 mi Calm Calm - N/A   Clear
9:55 PM 30.2 °F 25.4 °F 17.6 °F 60% 30.44 in 10.0 mi North 4.6 mph - N/A   Clear
10:15 PM 32.0 °F 28.7 °F 16.9 °F 54% 30.44 in 10.0 mi NW 3.5 mph - N/A   Clear
10:35 PM 28.8 °F - 18.3 °F 65% 30.43 in 10.0 mi Calm Calm - N/A   Clear
10:55 PM 31.8 °F - 17.4 °F 55% 30.43 in 10.0 mi Calm Calm - N/A   Clear
11:15 PM 31.1 °F 27.7 °F 16.9 °F 56% 30.43 in 10.0 mi NNW 3.5 mph - N/A   Clear
11:35 PM 30.4 °F 24.5 °F 17.2 °F 58% 30.43 in 10.0 mi South 5.8 mph - N/A   Clear
11:55 PM 28.9 °F - 18.0 °F 64% 30.43 in 10.0 mi Calm Calm - N/A   Clear